DW5529 Weather Reports


time (UTC)temp
F
wind
direction
speed
knots
gust
knots
rain 1hr
in
rain 24hr
in
rain mn
in
humidity
%
barometer
mb
20260507143013 71 180 0.0 0.0 0.00 0.00 0.00 25
20260507142511 71 180 0.0 0.0 0.00 0.00 0.00 26
20260507142010 69 180 0.0 0.0 0.00 0.00 0.00 28
20260507141514 69 180 0.0 0.0 0.00 0.00 0.00 30
20260507141012 69 180 0.0 0.0 0.00 0.00 0.00 31
20260507140509 67 180 0.0 0.0 0.00 0.00 0.00 32
20260507140008 67 180 0.0 0.0 0.00 0.00 0.00 33
20260507135512 68 180 0.0 0.0 0.00 0.00 0.00 34
20260507135023 65 180 0.0 0.0 0.00 0.00 0.00 35
20260507134514 64 180 0.0 0.0 0.00 0.00 0.00 34
20260507134012 64 180 0.0 0.0 0.00 0.00 0.00 35
20260507133510 62 180 0.0 0.0 0.00 0.00 0.00 35
20260507133025 64 180 0.0 0.0 0.00 0.00 0.00 35
20260507132526 63 180 0.0 0.0 0.00 0.00 0.00 36
20260507131509 62 180 0.0 0.0 0.00 0.00 0.00 36
20260507131014 62 180 0.0 0.0 0.00 0.00 0.00 36
20260507130512 63 180 0.0 0.0 0.00 0.00 0.00 36
20260507130011 62 180 0.0 0.0 0.00 0.00 0.00 36
20260507125509 62 180 0.0 0.0 0.00 0.00 0.00 36
20260507125013 63 180 0.0 0.0 0.00 0.00 0.00 36
20260507124522 62 180 0.0 0.0 0.00 0.00 0.00 35
20260507124013 63 180 0.0 0.0 0.00 0.00 0.00 35
20260507123512 62 180 0.0 0.0 0.00 0.00 0.00 33
20260507123010 64 180 0.0 0.0 0.00 0.00 0.00 33
20260507122509 63 180 0.0 0.0 0.00 0.00 0.00 32
20260507122008 66 180 0.0 0.0 0.00 0.00 0.00 31
20260507121512 65 180 0.0 0.0 0.00 0.00 0.00 30
20260507121010 65 180 0.0 0.0 0.00 0.00 0.00 30
20260507120526 63 180 0.0 0.0 0.00 0.00 0.00 30
20260507120023 64 180 0.0 0.0 0.00 0.00 0.00 30
20260507115514 64 180 0.0 0.0 0.00 0.00 0.00 31
20260507115012 64 180 0.0 0.0 0.00 0.00 0.00 32
20260507114511 63 180 0.0 0.0 0.00 0.00 0.00 32
20260507114009 62 180 0.0 0.0 0.00 0.00 0.00 33
20260507113514 61 180 0.0 0.0 0.00 0.00 0.00 34
20260507113011 63 180 0.0 0.0 0.00 0.00 0.00 34
20260507112510 64 180 0.0 0.0 0.00 0.00 0.00 34
20260507112013 63 180 0.0 0.0 0.00 0.00 0.00 33
20260507111511 64 180 0.0 0.0 0.00 0.00 0.00 32
20260507111009 64 180 0.0 0.0 0.00 0.00 0.00 32
20260507110524 63 180 0.0 0.0 0.00 0.00 0.00 32
20260507110009 63 180 0.0 0.0 0.00 0.00 0.00 33
20260507105514 63 180 0.0 0.0 0.00 0.00 0.00 34
20260507105011 62 180 0.0 0.0 0.00 0.00 0.00 35
20260507104509 61 180 0.0 0.0 0.00 0.00 0.00 35
20260507104014 62 180 0.0 0.0 0.00 0.00 0.00 36
20260507103529 62 180 0.0 0.0 0.00 0.00 0.00 35
20260507103008 63 180 0.0 0.0 0.00 0.00 0.00 35
20260507102513 64 180 0.0 0.0 0.00 0.00 0.00 35
20260507102023 63 180 0.0 0.0 0.00 0.00 0.00 34
20260507101526 64 180 0.0 0.0 0.00 0.00 0.00 33
20260507101023 65 180 0.0 0.0 0.00 0.00 0.00 33
20260507100508 64 180 0.0 0.0 0.00 0.00 0.00 32
20260507100013 65 180 0.0 0.0 0.00 0.00 0.00 33
20260507095523 63 180 0.0 0.0 0.00 0.00 0.00 33
20260507095008 64 180 0.0 0.0 0.00 0.00 0.00 34
20260507094525 64 180 0.0 0.0 0.00 0.00 0.00 34
20260507094010 63 180 0.0 0.0 0.00 0.00 0.00 36
20260507093513 65 180 0.0 0.0 0.00 0.00 0.00 35
20260507093012 65 180 0.0 0.0 0.00 0.00 0.00 35
20260507092509 64 180 0.0 0.0 0.00 0.00 0.00 34
20260507092007 65 180 0.0 0.0 0.00 0.00 0.00 33
20260507091513 65 180 0.0 0.0 0.00 0.00 0.00 33
20260507091011 64 180 0.0 0.0 0.00 0.00 0.00 33
20260507090509 64 180 0.0 0.0 0.00 0.00 0.00 33
20260507090008 64 180 0.0 0.0 0.00 0.00 0.00 33
20260507085512 65 180 0.0 0.0 0.00 0.00 0.00 33
20260507085010 64 180 0.0 0.0 0.00 0.00 0.00 33
20260507084012 65 180 0.0 0.0 0.00 0.00 0.00 36
20260507083511 65 180 0.0 0.0 0.00 0.00 0.00 35
20260507083008 66 180 0.0 0.0 0.00 0.00 0.00 35
20260507082513 65 180 0.0 0.0 0.00 0.00 0.00 35
20260507082011 66 180 0.0 0.0 0.00 0.00 0.00 35
20260507081510 65 180 0.0 0.0 0.00 0.00 0.00 36
20260507080512 64 180 0.0 0.0 0.00 0.00 0.00 35
20260507080010 66 180 0.0 0.0 0.00 0.00 0.00 35
20260507075509 66 180 0.0 0.0 0.00 0.00 0.00 35
20260507075013 66 180 0.0 0.0 0.00 0.00 0.00 34
20260507074524 65 180 0.0 0.0 0.00 0.00 0.00 33
20260507074008 66 180 0.0 0.0 0.00 0.00 0.00 33
20260507073512 66 180 0.0 0.0 0.00 0.00 0.00 33
20260507073010 65 180 0.0 0.0 0.00 0.00 0.00 33
20260507072515 66 180 0.0 0.0 0.00 0.00 0.00 33
20260507072012 65 180 0.0 0.0 0.00 0.00 0.00 33
20260507071511 66 180 0.0 0.0 0.00 0.00 0.00 35
20260507071009 64 180 0.0 0.0 0.00 0.00 0.00 33
20260507070508 66 180 0.0 0.0 0.00 0.00 0.00 32
20260507070013 66 180 0.0 0.0 0.00 0.00 0.00 33
20260507065523 66 180 0.0 0.0 0.00 0.00 0.00 33
20260507065008 67 180 0.0 0.0 0.00 0.00 0.00 33
20260507064513 66 180 0.0 0.0 0.00 0.00 0.00 33
20260507064011 66 180 0.0 0.0 0.00 0.00 0.00 32
20260507063522 67 180 0.0 0.0 0.00 0.00 0.00 32
20260507063013 66 180 0.0 0.0 0.00 0.00 0.00 33
20260507062511 68 180 0.0 0.0 0.00 0.00 0.00 33
20260507062009 66 180 0.0 0.0 0.00 0.00 0.00 34
20260507061508 67 180 0.0 0.0 0.00 0.00 0.00 32
20260507061013 67 180 0.0 0.0 0.00 0.00 0.00 33
20260507060511 68 180 0.0 0.0 0.00 0.00 0.00 34
20260507055508 68 180 0.0 0.0 0.00 0.00 0.00 34
20260507055012 68 180 0.0 0.0 0.00 0.00 0.00 33
20260507054511 68 180 0.0 0.0 0.00 0.00 0.00 32
20260507054022 68 180 0.0 0.0 0.00 0.00 0.00 32
20260507053513 68 180 0.0 0.0 0.00 0.00 0.00 30
20260507053012 69 180 0.0 0.0 0.00 0.00 0.00 28
20260507052510 68 180 0.0 0.0 0.00 0.00 0.00 28
20260507052009 68 180 0.0 0.0 0.00 0.00 0.00 28
20260507051507 68 180 0.0 0.0 0.00 0.00 0.00 27
20260507051024 69 180 0.0 0.0 0.00 0.00 0.00 27
20260507050509 70 180 0.0 0.0 0.00 0.00 0.00 28
20260507050014 69 180 0.0 0.0 0.00 0.00 0.00 29
20260507045512 69 180 0.0 0.0 0.00 0.00 0.00 30
20260507045011 70 180 0.0 0.0 0.00 0.00 0.00 29
20260507044508 68 180 0.0 0.0 0.00 0.00 0.00 28
20260507044012 71 180 0.0 0.0 0.00 0.00 0.00 29
20260507043510 72 180 0.0 0.0 0.00 0.00 0.00 28
20260507043009 71 180 0.0 0.0 0.00 0.00 0.00 28
20260507042513 71 180 0.0 0.0 0.00 0.00 0.00 27
20260507042011 72 180 0.0 0.0 0.00 0.00 0.00 27
20260507041510 70 180 0.0 0.0 0.00 0.00 0.00 25
20260507041009 71 180 0.0 0.0 0.00 0.00 0.00 24
20260507040508 72 180 0.0 0.0 0.00 0.00 0.00 24
20260507040013 72 180 0.0 0.0 0.00 0.00 0.00 24
20260507035511 71 180 0.0 0.0 0.00 0.00 0.00 23
20260507035027 74 180 0.0 0.0 0.00 0.00 0.00 23
20260507034512 75 180 0.0 0.0 0.00 0.00 0.00 22
20260507034010 74 180 0.0 0.0 0.00 0.00 0.00 21
20260507033025 74 180 0.0 0.0 0.00 0.00 0.00 20
20260507032521 75 180 0.0 0.0 0.00 0.00 0.00 18
20260507032012 76 180 0.0 0.0 0.00 0.00 0.00 18
20260507031510 76 180 0.0 0.0 0.00 0.00 0.00 18
20260507031009 76 180 0.0 0.0 0.00 0.00 0.00 18
20260507030512 76 180 0.0 0.0 0.00 0.00 0.00 17
20260507030010 77 180 0.0 0.0 0.00 0.00 0.00 17
20260507025509 76 180 0.0 0.0 0.00 0.00 0.00 17
20260507025012 76 180 0.0 0.0 0.00 0.00 0.00 17
20260507024511 77 180 0.0 0.0 0.00 0.00 0.00 17
20260507024009 77 180 0.0 0.0 0.00 0.00 0.00 17
20260507023508 78 180 0.0 0.0 0.00 0.00 0.00 17
20260507023012 78 180 0.0 0.0 0.00 0.00 0.00 16
20260507022511 79 180 0.0 0.0 0.00 0.00 0.00 16
20260507022022 79 180 0.0 0.0 0.00 0.00 0.00 16
20260507021512 80 180 0.0 0.0 0.00 0.00 0.00 15
20260507021011 79 180 0.0 0.0 0.00 0.00 0.00 15
20260507020509 81 180 0.0 0.0 0.00 0.00 0.00 15
20260507020026 81 180 0.0 0.0 0.00 0.00 0.00 14
20260507015523 81 180 0.0 0.0 0.00 0.00 0.00 14
20260507015008 81 180 0.0 0.0 0.00 0.00 0.00 14
20260507014507 82 180 0.0 0.0 0.00 0.00 0.00 13
20260507014012 81 180 0.0 0.0 0.00 0.00 0.00 13
20260507013510 83 180 0.0 0.0 0.00 0.00 0.00 13
20260507013026 83 180 0.0 0.0 0.00 0.00 0.00 13
20260507012511 84 180 0.0 0.0 0.00 0.00 0.00 13
20260507012010 83 180 0.0 0.0 0.00 0.00 0.00 12
20260507011508 86 180 0.0 0.0 0.00 0.00 0.00 12
20260507010511 86 180 0.0 0.0 0.00 0.00 0.00 11
20260507010010 86 180 0.0 0.0 0.00 0.00 0.00 11
20260507005507 86 180 0.0 0.0 0.00 0.00 0.00 11
20260507005012 86 180 0.0 0.0 0.00 0.00 0.00 11
20260507004511 87 180 0.0 0.0 0.00 0.00 0.00 11
20260507003512 86 180 0.0 0.0 0.00 0.00 0.00 10
20260507003010 87 180 0.0 0.0 0.00 0.00 0.00 10
20260507002513 88 180 0.0 0.0 0.00 0.00 0.00 10
20260507002011 88 180 0.0 0.0 0.00 0.00 0.00 11
20260507001509 87 180 0.0 0.0 0.00 0.00 0.00 10
20260507001026 88 180 0.0 0.0 0.00 0.00 0.00 11
20260507000510 87 180 0.0 0.0 0.00 0.00 0.00 11
20260507000008 87 180 0.0 0.0 0.00 0.00 0.00 10
20260506235512 88 180 0.0 0.0 0.00 0.00 0.00 10
20260506235011 88 180 0.0 0.0 0.00 0.00 0.00 9
20260506234508 89 180 0.0 0.0 0.00 0.00 0.00 11
20260506234007 88 180 0.0 0.0 0.00 0.00 0.00 10
20260506233512 90 180 0.0 0.0 0.00 0.00 0.00 10
20260506233010 89 180 0.0 0.0 0.00 0.00 0.00 9
20260506232508 89 180 0.0 0.0 0.00 0.00 0.00 9
20260506232013 88 180 0.0 0.0 0.00 0.00 0.00 9
20260506231524 90 180 0.0 0.0 0.00 0.00 0.00 9
20260506231008 90 180 0.0 0.0 0.00 0.00 0.00 9
20260506230011 88 180 0.0 0.0 0.00 0.00 0.00 9
20260506225510 89 180 0.0 0.0 0.00 0.00 0.00 9
20260506225008 89 180 0.0 0.0 0.00 0.00 0.00 9
20260506224513 89 180 0.0 0.0 0.00 0.00 0.00 11
20260506224012 89 180 0.0 0.0 0.00 0.00 0.00 10
20260506223510 90 180 0.0 0.0 0.00 0.00 0.00 9
20260506223009 89 180 0.0 0.0 0.00 0.00 0.00 10
20260506222507 89 180 0.0 0.0 0.00 0.00 0.00 9
20260506222012 91 180 0.0 0.0 0.00 0.00 0.00 10
20260506221511 89 180 0.0 0.0 0.00 0.00 0.00 11
20260506221009 90 180 0.0 0.0 0.00 0.00 0.00 11
20260506220508 90 180 0.0 0.0 0.00 0.00 0.00 11
20260506220024 90 180 0.0 0.0 0.00 0.00 0.00 10
20260506215510 87 180 0.0 0.0 0.00 0.00 0.00 11
20260506215007 86 180 0.0 0.0 0.00 0.00 0.00 10
20260506214524 87 180 0.0 0.0 0.00 0.00 0.00 10
20260506214009 87 180 0.0 0.0 0.00 0.00 0.00 10
20260506213525 89 180 0.0 0.0 0.00 0.00 0.00 9
20260506213010 91 180 0.0 0.0 0.00 0.00 0.00 9
20260506212508 89 180 0.0 0.0 0.00 0.00 0.00 8
20260506212013 91 180 0.0 0.0 0.00 0.00 0.00 10
20260506211510 90 180 0.0 0.0 0.00 0.00 0.00 11
20260506211009 89 180 0.0 0.0 0.00 0.00 0.00 12
20260506210508 88 180 0.0 0.0 0.00 0.00 0.00 12
20260506210013 89 180 0.0 0.0 0.00 0.00 0.00 11
20260506205523 89 180 0.0 0.0 0.00 0.00 0.00 10
20260506205021 89 180 0.0 0.0 0.00 0.00 0.00 10
20260506204512 89 180 0.0 0.0 0.00 0.00 0.00 10
20260506204010 88 180 0.0 0.0 0.00 0.00 0.00 12
20260506203509 88 180 0.0 0.0 0.00 0.00 0.00 11
20260506203007 88 180 0.0 0.0 0.00 0.00 0.00 10
20260506202512 87 180 0.0 0.0 0.00 0.00 0.00 11
20260506202011 88 180 0.0 0.0 0.00 0.00 0.00 10
20260506201527 88 180 0.0 0.0 0.00 0.00 0.00 16
20260506201011 85 180 0.0 0.0 0.00 0.00 0.00 11
20260506200510 86 180 0.0 0.0 0.00 0.00 0.00 12
20260506200008 86 180 0.0 0.0 0.00 0.00 0.00 11
20260506195506 86 180 0.0 0.0 0.00 0.00 0.00 12
20260506195011 86 180 0.0 0.0 0.00 0.00 0.00 13
20260506194510 86 180 0.0 0.0 0.00 0.00 0.00 13
20260506194009 86 180 0.0 0.0 0.00 0.00 0.00 11
20260506193507 87 180 0.0 0.0 0.00 0.00 0.00 13
20260506193012 88 180 0.0 0.0 0.00 0.00 0.00 13
20260506192510 86 180 0.0 0.0 0.00 0.00 0.00 14
20260506192009 86 180 0.0 0.0 0.00 0.00 0.00 13
20260506191508 87 180 0.0 0.0 0.00 0.00 0.00 10
20260506191024 89 180 0.0 0.0 0.00 0.00 0.00 15
20260506190014 89 180 0.0 0.0 0.00 0.00 0.00 14
20260506185511 89 180 0.0 0.0 0.00 0.00 0.00 12
20260506185009 87 180 0.0 0.0 0.00 0.00 0.00 15
20260506184508 86 180 0.0 0.0 0.00 0.00 0.00 13
20260506184012 85 180 0.0 0.0 0.00 0.00 0.00 14
20260506183511 84 180 0.0 0.0 0.00 0.00 0.00 14
20260506183010 85 180 0.0 0.0 0.00 0.00 0.00 14
20260506182508 84 180 0.0 0.0 0.00 0.00 0.00 14
20260506182007 85 180 0.0 0.0 0.00 0.00 0.00 13
20260506181512 84 180 0.0 0.0 0.00 0.00 0.00 15
20260506181022 85 180 0.0 0.0 0.00 0.00 0.00 14
20260506180507 85 180 0.0 0.0 0.00 0.00 0.00 14
20260506180012 83 180 0.0 0.0 0.00 0.00 0.00 16
20260506175509 83 180 0.0 0.0 0.00 0.00 0.00 15
20260506175008 82 180 0.0 0.0 0.00 0.00 0.00 18
20260506174506 82 180 0.0 0.0 0.00 0.00 0.00 16
20260506174011 82 180 0.0 0.0 0.00 0.00 0.00 17
20260506173509 83 180 0.0 0.0 0.00 0.00 0.00 17
20260506173026 82 180 0.0 0.0 0.00 0.00 0.00 17
20260506172511 82 180 0.0 0.0 0.00 0.00 0.00 16
20260506172009 81 180 0.0 0.0 0.00 0.00 0.00 19
20260506171508 81 180 0.0 0.0 0.00 0.00 0.00 19
20260506171013 82 180 0.0 0.0 0.00 0.00 0.00 18
20260506170523 83 180 0.0 0.0 0.00 0.00 0.00 18
20260506170008 81 180 0.0 0.0 0.00 0.00 0.00 18
20260506165513 81 180 0.0 0.0 0.00 0.00 0.00 18
20260506165011 83 180 0.0 0.0 0.00 0.00 0.00 17
20260506164522 80 180 0.0 0.0 0.00 0.00 0.00 21
20260506164013 80 180 0.0 0.0 0.00 0.00 0.00 18
20260506163511 81 180 0.0 0.0 0.00 0.00 0.00 19
20260506163009 81 180 0.0 0.0 0.00 0.00 0.00 18
20260506162525 80 180 0.0 0.0 0.00 0.00 0.00 20
20260506162010 79 180 0.0 0.0 0.00 0.00 0.00 22
20260506161526 79 180 0.0 0.0 0.00 0.00 0.00 22
20260506161011 78 180 0.0 0.0 0.00 0.00 0.00 20
20260506160509 79 180 0.0 0.0 0.00 0.00 0.00 23
20260506160007 78 180 0.0 0.0 0.00 0.00 0.00 22
20260506155512 77 180 0.0 0.0 0.00 0.00 0.00 22
20260506155011 77 180 0.0 0.0 0.00 0.00 0.00 24
20260506154508 77 180 0.0 0.0 0.00 0.00 0.00 24
20260506154012 77 180 0.0 0.0 0.00 0.00 0.00 25
20260506153523 75 180 0.0 0.0 0.00 0.00 0.00 28
20260506153007 75 180 0.0 0.0 0.00 0.00 0.00 24
20260506152511 72 180 0.0 0.0 0.00 0.00 0.00 27
20260506152008 73 180 0.0 0.0 0.00 0.00 0.00 29
20260506151512 71 180 0.0 0.0 0.00 0.00 0.00 29
20260506151010 71 180 0.0 0.0 0.00 0.00 0.00 29
20260506150509 71 180 0.0 0.0 0.00 0.00 0.00 30
20260506150008 70 180 0.0 0.0 0.00 0.00 0.00 30
20260506145512 69 180 0.0 0.0 0.00 0.00 0.00 32
20260506145010 69 180 0.0 0.0 0.00 0.00 0.00 33
20260506144509 67 180 0.0 0.0 0.00 0.00 0.00 33
20260506144013 67 180 0.0 0.0 0.00 0.00 0.00 34
20260506143523 67 180 0.0 0.0 0.00 0.00 0.00 35